Location: Unspecified
(0.0000°N, 0.0000°E)
Time: 20:15:21
(UTC+00:00)

CZ-3C DEB (VEB) - Pass Details

Date: 13 March 2026
Orbit: 224 x 25513 km, 21.0° (Epoch: 10 April)

Event Time Altitude Azimuth Distance (km) Brightness Sun altitude
Rises 23:28:54 0° 291° (WNW) 7,720 ? -79.4°
Reaches altitude 10° 23:32:30 10° 296° (WNW) 7,761 ? -80.2°
Enters shadow 00:08:17 57° 338° (NNW) 12,950 ? -87.0°
Exits shadow 00:27:38 62° 353° (N) 16,059 ? -84.6°
Maximum altitude 04:42:12 88° 63° (ENE) 19,807 ? -21.8°
Drops below altitude 10° 06:09:53 10° 117° (ESE) 7,632 ? 0.1°
Sets 06:13:09 0° 116° (ESE) 7,691 ? 0.9°
